Time,TemperatureF,DewpointF,PressureIn,WindDirection,WindDirectionDegrees,WindSpeedMPH,WindSpeedGustMPH,Humidity,HourlyPrecipIn,Conditions,Clouds,dailyrainin,SoftwareType,DateUTC
2013-02-24 00:00:00,24.9,19.6,29.92,NW,307,1.0,1.0,80,0.00,,,0.04,Wunderground v.1.15,2013-02-24 05:00:00,
2013-02-24 00:05:00,24.7,19.7,29.92,WSW,245,0.0,1.0,81,0.00,,,0.00,Wunderground v.1.15,2013-02-24 05:05:00,
2013-02-24 00:15:00,24.5,19.5,29.92,West,263,1.0,2.0,81,0.00,,,0.00,Wunderground v.1.15,2013-02-24 05:15:00,
2013-02-24 00:25:00,24.0,19.0,29.92,West,270,0.0,2.0,81,0.00,,,0.00,Wunderground v.1.15,2013-02-24 05:25:00,
2013-02-24 00:30:00,23.9,19.2,29.92,West,273,0.0,0.0,82,0.00,,,0.00,Wunderground v.1.15,2013-02-24 05:30:00,
2013-02-24 00:35:00,23.7,19.0,29.92,WNW,286,0.0,0.0,82,0.00,,,0.00,Wunderground v.1.15,2013-02-24 05:35:00,
2013-02-24 00:45:00,23.3,18.9,29.92,NW,304,0.0,0.0,83,0.00,,,0.00,Wunderground v.1.15,2013-02-24 05:45:00,
2013-02-24 00:55:00,22.7,18.6,29.92,NW,304,0.0,4.0,84,0.00,,,0.00,Wunderground v.1.15,2013-02-24 05:55:00,
2013-02-24 01:00:00,22.7,18.6,29.93,West,278,0.0,4.0,84,0.00,,,0.00,Wunderground v.1.15,2013-02-24 06:00:00,
2013-02-24 01:10:00,22.7,18.9,29.93,WNW,300,0.0,4.0,85,0.00,,,0.00,Wunderground v.1.15,2013-02-24 06:10:00,
2013-02-24 01:20:00,22.5,18.4,29.93,West,273,0.0,4.0,84,0.00,,,0.00,Wunderground v.1.15,2013-02-24 06:20:00,
2013-02-24 01:30:00,22.7,18.9,29.93,WNW,282,0.0,4.0,85,0.00,,,0.00,Wunderground v.1.15,2013-02-24 06:30:00,
2013-02-24 01:35:00,22.7,18.6,29.93,NW,305,1.0,4.0,84,0.00,,,0.00,Wunderground v.1.15,2013-02-24 06:35:00,
2013-02-24 01:45:00,22.4,18.3,29.93,West,273,0.0,4.0,84,0.00,,,0.00,Wunderground v.1.15,2013-02-24 06:45:00,
2013-02-24 01:55:00,22.3,18.5,29.94,WNW,291,0.0,4.0,85,0.00,,,0.00,Wunderground v.1.15,2013-02-24 06:55:00,
2013-02-24 02:00:00,22.4,18.6,29.94,West,273,0.0,1.0,85,0.00,,,0.00,Wunderground v.1.15,2013-02-24 07:00:00,
2013-02-24 02:05:00,22.5,18.7,29.94,West,280,0.0,1.0,85,0.00,,,0.00,Wunderground v.1.15,2013-02-24 07:05:00,
2013-02-24 02:15:00,22.5,18.7,29.94,WNW,293,1.0,5.0,85,0.00,,,0.00,Wunderground v.1.15,2013-02-24 07:15:00,
2013-02-24 02:25:00,22.7,18.6,29.95,West,281,2.0,2.0,84,0.00,,,0.00,Wunderground v.1.15,2013-02-24 07:25:00,
2013-02-24 02:35:00,22.6,18.8,29.95,WNW,290,2.0,2.0,85,0.00,,,0.00,Wunderground v.1.15,2013-02-24 07:35:00,
2013-02-24 02:45:00,22.7,18.9,29.95,WNW,288,2.0,2.0,85,0.00,,,0.00,Wunderground v.1.15,2013-02-24 07:45:00,
2013-02-24 02:55:00,22.6,18.8,29.95,WNW,298,1.0,3.0,85,0.00,,,0.00,Wunderground v.1.15,2013-02-24 07:55:00,
2013-02-24 03:00:00,22.6,19.0,29.95,West,264,1.0,1.0,86,0.00,,,0.00,Wunderground v.1.15,2013-02-24 08:00:00,
2013-02-24 03:10:00,22.6,19.0,29.95,West,263,1.0,1.0,86,0.00,,,0.00,Wunderground v.1.15,2013-02-24 08:10:00,
2013-02-24 03:15:00,22.6,19.0,29.95,West,274,0.0,3.0,86,0.00,,,0.00,Wunderground v.1.15,2013-02-24 08:15:00,
2013-02-24 03:25:00,22.7,19.4,29.95,WNW,293,1.0,3.0,87,0.00,,,0.00,Wunderground v.1.15,2013-02-24 08:25:00,
2013-02-24 03:35:00,22.7,19.4,29.95,WNW,290,1.0,3.0,87,0.00,,,0.00,Wunderground v.1.15,2013-02-24 08:35:00,
2013-02-24 03:45:00,22.7,19.7,29.95,WSW,246,1.0,3.0,88,0.00,,,0.00,Wunderground v.1.15,2013-02-24 08:45:00,
2013-02-24 03:55:00,22.6,19.6,29.95,WNW,293,1.0,3.0,88,0.00,,,0.00,Wunderground v.1.15,2013-02-24 08:55:00,
2013-02-24 04:00:00,22.7,19.7,29.95,WNW,298,2.0,3.0,88,0.00,,,0.00,Wunderground v.1.15,2013-02-24 09:00:00,
2013-02-24 04:05:00,22.6,19.6,29.95,WNW,288,1.0,3.0,88,0.00,,,0.00,Wunderground v.1.15,2013-02-24 09:05:00,
2013-02-24 04:15:00,22.4,19.6,29.95,West,277,1.0,1.0,89,0.00,,,0.00,Wunderground v.1.15,2013-02-24 09:15:00,
2013-02-24 04:25:00,22.1,19.4,29.95,West,276,0.0,1.0,89,0.00,,,0.00,Wunderground v.1.15,2013-02-24 09:25:00,
2013-02-24 04:35:00,22.0,19.3,29.95,WNW,297,0.0,0.0,89,0.00,,,0.00,Wunderground v.1.15,2013-02-24 09:35:00,
2013-02-24 04:40:00,22.0,19.3,29.95,West,273,0.0,0.0,89,0.00,,,0.00,Wunderground v.1.15,2013-02-24 09:40:00,
2013-02-24 04:50:00,22.0,19.5,29.95,WNW,288,0.0,6.0,90,0.00,,,0.00,Wunderground v.1.15,2013-02-24 09:50:00,
2013-02-24 05:00:00,22.1,19.6,29.96,West,267,0.0,6.0,90,0.00,,,0.00,Wunderground v.1.15,2013-02-24 10:00:00,
2013-02-24 05:05:00,22.2,19.7,29.96,WNW,300,0.0,6.0,90,0.00,,,0.00,Wunderground v.1.15,2013-02-24 10:05:00,
2013-02-24 05:15:00,22.3,19.6,29.96,West,270,0.0,6.0,89,0.00,,,0.00,Wunderground v.1.15,2013-02-24 10:15:00,
2013-02-24 05:25:00,22.3,19.6,29.96,West,274,0.0,6.0,89,0.00,,,0.00,Wunderground v.1.15,2013-02-24 10:25:00,
2013-02-24 05:35:00,22.4,19.6,29.97,West,274,0.0,6.0,89,0.00,,,0.00,Wunderground v.1.15,2013-02-24 10:35:00,
2013-02-24 05:45:00,22.5,19.7,29.97,West,278,0.0,6.0,89,0.00,,,0.00,Wunderground v.1.15,2013-02-24 10:45:00,
2013-02-24 05:55:00,22.6,19.8,29.97,WNW,284,0.0,6.0,89,0.00,,,0.00,Wunderground v.1.15,2013-02-24 10:55:00,
2013-02-24 06:00:00,22.6,19.8,29.97,West,273,0.0,0.0,89,0.00,,,0.00,Wunderground v.1.15,2013-02-24 11:00:00,
2013-02-24 06:10:00,22.7,19.9,29.97,West,273,0.0,1.0,89,0.00,,,0.00,Wunderground v.1.15,2013-02-24 11:10:00,
2013-02-24 06:20:00,22.8,20.0,29.98,West,280,0.0,0.0,89,0.00,,,0.00,Wunderground v.1.15,2013-02-24 11:20:00,
2013-02-24 06:25:00,22.9,20.1,29.98,West,280,0.0,0.0,89,0.00,,,0.00,Wunderground v.1.15,2013-02-24 11:25:00,
2013-02-24 06:35:00,22.9,19.9,29.98,WNW,283,1.0,1.0,88,0.00,,,0.00,Wunderground v.1.15,2013-02-24 11:35:00,
2013-02-24 06:45:00,23.1,20.1,29.99,West,280,1.0,1.0,88,0.00,,,0.00,Wunderground v.1.15,2013-02-24 11:45:00,
2013-02-24 06:55:00,23.0,20.0,29.99,WNW,303,1.0,3.0,88,0.00,,,0.00,Wunderground v.1.15,2013-02-24 11:55:00,
2013-02-24 07:05:00,22.9,19.9,29.99,NW,305,1.0,3.0,88,0.00,,,0.00,Wunderground v.1.15,2013-02-24 12:05:00,
2013-02-24 07:15:00,22.7,19.7,29.99,NW,314,1.0,3.0,88,0.00,,,0.00,Wunderground v.1.15,2013-02-24 12:15:00,
2013-02-24 07:20:00,22.6,19.6,29.99,WNW,295,1.0,3.0,88,0.00,,,0.00,Wunderground v.1.15,2013-02-24 12:20:00,
2013-02-24 07:30:00,22.4,19.6,29.99,NW,305,2.0,4.0,89,0.00,,,0.00,Wunderground v.1.15,2013-02-24 12:30:00,
2013-02-24 07:40:00,22.3,19.6,30.00,WNW,293,1.0,3.0,89,0.00,,,0.00,Wunderground v.1.15,2013-02-24 12:40:00,
2013-02-24 07:45:00,22.3,19.6,30.00,WNW,291,1.0,7.0,89,0.00,,,0.00,Wunderground v.1.15,2013-02-24 12:45:00,
2013-02-24 07:55:00,22.6,19.6,30.00,WNW,290,2.0,3.0,88,0.00,,,0.00,Wunderground v.1.15,2013-02-24 12:55:00,
2013-02-24 08:00:00,22.7,19.7,30.00,WNW,296,1.0,1.0,88,0.00,,,0.00,Wunderground v.1.15,2013-02-24 13:00:00,
2013-02-24 08:10:00,23.1,20.1,30.00,WNW,284,1.0,1.0,88,0.00,,,0.00,Wunderground v.1.15,2013-02-24 13:10:00,
2013-02-24 08:15:00,23.3,20.0,30.00,WNW,286,0.0,3.0,87,0.00,,,0.00,Wunderground v.1.15,2013-02-24 13:15:00,
2013-02-24 08:25:00,23.7,20.4,30.00,WNW,302,2.0,2.0,87,0.00,,,0.00,Wunderground v.1.15,2013-02-24 13:25:00,
2013-02-24 08:35:00,24.2,20.6,30.01,WNW,297,2.0,3.0,86,0.00,,,0.00,Wunderground v.1.15,2013-02-24 13:35:00,
2013-02-24 08:45:00,25.1,21.5,30.01,WNW,294,2.0,2.0,86,0.00,,,0.00,Wunderground v.1.15,2013-02-24 13:45:00,
2013-02-24 08:55:00,25.6,21.7,30.01,WNW,286,2.0,7.0,85,0.00,,,0.00,Wunderground v.1.15,2013-02-24 13:55:00,
2013-02-24 09:05:00,25.9,22.0,30.01,WNW,293,2.0,4.0,85,0.00,,,0.00,Wunderground v.1.15,2013-02-24 14:05:00,
2013-02-24 09:15:00,26.3,22.4,30.01,WNW,288,2.0,7.0,85,0.00,,,0.00,Wunderground v.1.15,2013-02-24 14:15:00,
2013-02-24 09:25:00,26.7,23.1,30.01,WSW,257,2.0,7.0,86,0.00,,,0.00,Wunderground v.1.15,2013-02-24 14:25:00,
2013-02-24 09:35:00,26.9,23.3,30.02,WNW,301,3.0,7.0,86,0.00,,,0.00,Wunderground v.1.15,2013-02-24 14:35:00,
2013-02-24 09:50:00,27.2,23.3,30.02,WNW,282,3.0,3.0,85,0.00,,,0.00,Wunderground v.1.15,2013-02-24 14:50:00,
2013-02-24 10:00:00,27.5,23.9,30.02,West,274,4.0,4.0,86,0.00,,,0.00,Wunderground v.1.15,2013-02-24 15:00:00,
2013-02-24 10:05:00,27.8,23.9,30.02,WSW,256,3.0,4.0,85,0.00,,,0.00,Wunderground v.1.15,2013-02-24 15:05:00,
2013-02-24 10:15:00,28.2,24.3,30.02,West,260,3.0,3.0,85,0.00,,,0.00,Wunderground v.1.15,2013-02-24 15:15:00,
2013-02-24 10:25:00,28.4,24.5,30.02,WNW,302,3.0,6.0,85,0.00,,,0.00,Wunderground v.1.15,2013-02-24 15:25:00,
2013-02-24 10:35:00,28.9,25.0,30.03,WSW,245,3.0,3.0,85,0.00,,,0.00,Wunderground v.1.15,2013-02-24 15:35:00,
2013-02-24 10:45:00,29.4,25.2,30.03,West,280,3.0,5.0,84,0.00,,,0.00,Wunderground v.1.15,2013-02-24 15:45:00,
2013-02-24 10:50:00,29.7,25.5,30.03,West,276,4.0,4.0,84,0.00,,,0.00,Wunderground v.1.15,2013-02-24 15:50:00,
2013-02-24 11:00:00,30.2,25.4,30.03,NW,307,3.0,11.0,82,0.00,,,0.00,Wunderground v.1.15,2013-02-24 16:00:00,
2013-02-24 11:10:00,30.3,25.2,30.03,WNW,295,4.0,11.0,81,0.00,,,0.00,Wunderground v.1.15,2013-02-24 16:10:00,
2013-02-24 11:20:00,30.3,25.8,30.04,WNW,302,3.0,11.0,83,0.00,,,0.00,Wunderground v.1.15,2013-02-24 16:20:00,
2013-02-24 11:30:00,30.4,25.6,30.04,WNW,302,4.0,11.0,82,0.00,,,0.00,Wunderground v.1.15,2013-02-24 16:30:00,
2013-02-24 11:35:00,30.7,25.9,30.04,West,262,4.0,11.0,82,0.00,,,0.00,Wunderground v.1.15,2013-02-24 16:35:00,
2013-02-24 11:45:00,30.9,25.8,30.04,West,278,4.0,11.0,81,0.00,,,0.00,Wunderground v.1.15,2013-02-24 16:45:00,
2013-02-24 11:55:00,31.2,26.0,30.05,WNW,286,3.0,11.0,81,0.00,,,0.00,Wunderground v.1.15,2013-02-24 16:55:00,
2013-02-24 12:00:00,31.2,25.4,30.05,WSW,245,3.0,3.0,79,0.00,,,0.00,Wunderground v.1.15,2013-02-24 17:00:00,
2013-02-24 12:05:00,31.4,25.6,30.05,West,273,3.0,3.0,79,0.00,,,0.00,Wunderground v.1.15,2013-02-24 17:05:00,
2013-02-24 12:15:00,32.0,26.2,30.05,WNW,284,2.0,3.0,79,0.00,,,0.00,Wunderground v.1.15,2013-02-24 17:15:00,
2013-02-24 12:25:00,32.6,26.2,30.05,NW,307,2.0,4.0,77,0.00,,,0.00,Wunderground v.1.15,2013-02-24 17:25:00,
2013-02-24 12:35:00,33.1,26.4,30.05,West,280,3.0,3.0,76,0.00,,,0.00,Wunderground v.1.15,2013-02-24 17:35:00,
2013-02-24 12:45:00,33.7,26.6,30.05,WNW,291,3.0,4.0,75,0.00,,,0.00,Wunderground v.1.15,2013-02-24 17:45:00,
2013-02-24 12:55:00,34.8,26.4,30.05,West,264,3.0,13.0,71,0.00,,,0.00,Wunderground v.1.15,2013-02-24 17:55:00,
2013-02-24 13:05:00,35.5,26.7,30.05,WNW,301,3.0,13.0,70,0.00,,,0.00,Wunderground v.1.15,2013-02-24 18:05:00,
2013-02-24 13:10:00,35.9,26.4,30.05,WNW,293,4.0,13.0,68,0.00,,,0.00,Wunderground v.1.15,2013-02-24 18:10:00,
2013-02-24 13:20:00,35.4,25.5,30.05,WNW,287,4.0,13.0,67,0.00,,,0.00,Wunderground v.1.15,2013-02-24 18:20:00,
2013-02-24 13:30:00,34.4,25.6,30.05,West,280,3.0,3.0,70,0.00,,,0.00,Wunderground v.1.15,2013-02-24 18:30:00,
2013-02-24 13:40:00,34.3,25.5,30.05,West,280,3.0,13.0,70,0.00,,,0.00,Wunderground v.1.15,2013-02-24 18:40:00,
2013-02-24 13:45:00,34.4,26.0,30.05,NW,311,2.0,13.0,71,0.00,,,0.00,Wunderground v.1.15,2013-02-24 18:45:00,
2013-02-24 13:55:00,34.3,25.5,30.05,WNW,293,3.0,3.0,70,0.00,,,0.00,Wunderground v.1.15,2013-02-24 18:55:00,
2013-02-24 14:00:00,34.4,25.3,30.05,WNW,295,3.0,3.0,69,0.00,,,0.00,Wunderground v.1.15,2013-02-24 19:00:00,
2013-02-24 14:05:00,34.4,24.9,30.05,NW,304,3.0,3.0,68,0.00,,,0.00,Wunderground v.1.15,2013-02-24 19:05:00,
2013-02-24 14:15:00,34.4,24.9,30.06,NNW,339,3.0,4.0,68,0.00,,,0.00,Wunderground v.1.15,2013-02-24 19:15:00,
2013-02-24 14:25:00,34.4,24.2,30.06,West,259,3.0,3.0,66,0.00,,,0.00,Wunderground v.1.15,2013-02-24 19:25:00,
2013-02-24 14:30:00,34.7,24.5,30.06,West,263,2.0,2.0,66,0.00,,,0.01,Wunderground v.1.15,2013-02-24 19:30:00,
2013-02-24 14:40:00,34.4,24.6,30.06,West,260,2.0,2.0,67,0.00,,,0.01,Wunderground v.1.15,2013-02-24 19:40:00,
2013-02-24 14:50:00,34.1,25.0,30.06,WNW,295,2.0,2.0,69,0.00,,,0.01,Wunderground v.1.15,2013-02-24 19:50:00,
2013-02-24 15:00:00,34.0,24.9,30.06,WNW,283,2.0,9.0,69,0.00,,,0.01,Wunderground v.1.15,2013-02-24 20:00:00,
2013-02-24 15:10:00,33.9,25.1,30.07,WNW,295,2.0,2.0,70,0.00,,,0.01,Wunderground v.1.15,2013-02-24 20:10:00,
2013-02-24 15:15:00,33.8,25.4,30.07,West,276,1.0,9.0,71,0.00,,,0.01,Wunderground v.1.15,2013-02-24 20:15:00,
2013-02-24 15:25:00,33.9,25.5,30.07,WSW,256,1.0,9.0,71,0.00,,,0.01,Wunderground v.1.15,2013-02-24 20:25:00,
2013-02-24 15:35:00,34.2,25.8,30.07,NW,326,1.0,9.0,71,0.00,,,0.01,Wunderground v.1.15,2013-02-24 20:35:00,
2013-02-24 15:45:00,34.5,25.7,30.07,NW,314,1.0,9.0,70,0.00,,,0.01,Wunderground v.1.15,2013-02-24 20:45:00,
2013-02-24 15:55:00,35.0,25.5,30.08,West,274,1.0,9.0,68,0.00,,,0.01,Wunderground v.1.15,2013-02-24 20:55:00,
2013-02-24 16:00:00,35.0,25.5,30.08,West,259,1.0,1.0,68,0.00,,,0.01,Wunderground v.1.15,2013-02-24 21:00:00,
2013-02-24 16:10:00,34.9,24.7,30.08,NNW,339,2.0,2.0,66,0.00,,,0.01,Wunderground v.1.15,2013-02-24 21:10:00,
2013-02-24 16:15:00,34.8,25.0,30.09,NNE,21,3.0,3.0,67,0.00,,,0.01,Wunderground v.1.15,2013-02-24 21:15:00,
2013-02-24 16:25:00,34.6,24.8,30.08,WNW,287,2.0,6.0,67,0.00,,,0.01,Wunderground v.1.15,2013-02-24 21:25:00,
2013-02-24 16:30:00,34.5,24.7,30.09,West,263,2.0,4.0,67,0.00,,,0.01,Wunderground v.1.15,2013-02-24 21:30:00,
2013-02-24 16:40:00,34.3,24.8,30.09,NW,305,2.0,2.0,68,0.00,,,0.01,Wunderground v.1.15,2013-02-24 21:40:00,
2013-02-24 16:50:00,34.3,25.2,30.10,NW,321,1.0,3.0,69,0.00,,,0.01,Wunderground v.1.15,2013-02-24 21:50:00,
2013-02-24 17:00:00,34.5,25.0,30.10,NW,326,2.0,2.0,68,0.00,,,0.01,Wunderground v.1.15,2013-02-24 22:00:00,
2013-02-24 17:05:00,34.5,24.7,30.10,North,8,2.0,3.0,67,0.00,,,0.01,Wunderground v.1.15,2013-02-24 22:05:00,
2013-02-24 17:15:00,34.3,24.8,30.10,NNW,333,1.0,3.0,68,0.00,,,0.01,Wunderground v.1.15,2013-02-24 22:15:00,
2013-02-24 17:25:00,34.3,24.8,30.11,NW,323,1.0,2.0,68,0.00,,,0.01,Wunderground v.1.15,2013-02-24 22:25:00,
2013-02-24 17:35:00,34.3,24.8,30.11,North,360,1.0,3.0,68,0.00,,,0.01,Wunderground v.1.15,2013-02-24 22:35:00,
2013-02-24 17:45:00,34.1,24.6,30.11,NW,321,1.0,3.0,68,0.00,,,0.01,Wunderground v.1.15,2013-02-24 22:45:00,
2013-02-24 17:55:00,34.0,24.9,30.12,West,262,1.0,3.0,69,0.00,,,0.01,Wunderground v.1.15,2013-02-24 22:55:00,
2013-02-24 18:00:00,34.0,24.5,30.12,NNW,348,1.0,1.0,68,0.00,,,0.01,Wunderground v.1.15,2013-02-24 23:00:00,
2013-02-24 18:10:00,33.9,25.1,30.12,NW,314,1.0,1.0,70,0.00,,,0.01,Wunderground v.1.15,2013-02-24 23:10:00,
2013-02-24 18:15:00,33.8,25.0,30.12,NNW,330,0.0,1.0,70,0.00,,,0.01,Wunderground v.1.15,2013-02-24 23:15:00,
2013-02-24 18:25:00,33.4,24.7,30.12,NW,314,0.0,0.0,70,0.00,,,0.01,Wunderground v.1.15,2013-02-24 23:25:00,
2013-02-24 18:30:00,33.2,24.8,30.12,West,273,0.0,0.0,71,0.00,,,0.01,Wunderground v.1.15,2013-02-24 23:30:00,
2013-02-24 18:40:00,32.9,24.5,30.13,NW,322,0.0,0.0,71,0.00,,,0.01,Wunderground v.1.15,2013-02-24 23:40:00,
2013-02-24 18:50:00,32.4,24.4,30.13,NW,319,0.0,3.0,72,0.00,,,0.01,Wunderground v.1.15,2013-02-24 23:50:00,
2013-02-24 19:00:00,31.8,24.1,30.14,NW,319,0.0,3.0,73,0.00,,,0.01,Wunderground v.1.15,2013-02-25 00:00:00,
2013-02-24 19:10:00,31.0,23.4,30.14,NW,319,0.0,3.0,73,0.00,,,0.01,Wunderground v.1.15,2013-02-25 00:10:00,
2013-02-24 19:20:00,29.6,22.6,30.14,NW,319,0.0,3.0,75,0.00,,,0.01,Wunderground v.1.15,2013-02-25 00:20:00,
2013-02-24 19:25:00,28.8,22.5,30.15,NW,319,0.0,3.0,77,0.00,,,0.01,Wunderground v.1.15,2013-02-25 00:25:00,
2013-02-24 19:35:00,27.6,22.2,30.15,NW,319,0.0,3.0,80,0.00,,,0.01,Wunderground v.1.15,2013-02-25 00:35:00,
2013-02-24 19:45:00,26.7,21.9,30.15,NW,319,0.0,3.0,82,0.00,,,0.01,Wunderground v.1.15,2013-02-25 00:45:00,
2013-02-24 19:55:00,26.0,21.5,30.16,NW,319,0.0,3.0,83,0.00,,,0.01,Wunderground v.1.15,2013-02-25 00:55:00,
2013-02-24 20:00:00,26.0,22.1,30.16,NW,319,0.0,0.0,85,0.00,,,0.01,Wunderground v.1.15,2013-02-25 01:00:00,
2013-02-24 20:10:00,25.9,22.0,30.16,NW,319,0.0,0.0,85,0.00,,,0.01,Wunderground v.1.15,2013-02-25 01:10:00,
2013-02-24 20:20:00,25.7,22.1,30.16,NW,319,0.0,0.0,86,0.00,,,0.01,Wunderground v.1.15,2013-02-25 01:20:00,
2013-02-24 20:30:00,25.3,22.0,30.17,NW,319,0.0,0.0,87,0.00,,,0.01,Wunderground v.1.15,2013-02-25 01:30:00,
2013-02-24 20:40:00,24.6,21.3,30.16,NW,319,0.0,0.0,87,0.00,,,0.01,Wunderground v.1.15,2013-02-25 01:40:00,
2013-02-24 20:50:00,23.9,20.9,30.16,NW,319,0.0,0.0,88,0.00,,,0.01,Wunderground v.1.15,2013-02-25 01:50:00,
2013-02-24 21:00:00,23.6,20.8,30.17,NW,319,0.0,0.0,89,0.00,,,0.01,Wunderground v.1.15,2013-02-25 02:00:00,
2013-02-24 21:10:00,23.4,20.9,30.16,NW,319,0.0,0.0,90,0.00,,,0.01,Wunderground v.1.15,2013-02-25 02:10:00,
2013-02-24 21:15:00,23.3,20.8,30.17,NW,319,0.0,0.0,90,0.00,,,0.01,Wunderground v.1.15,2013-02-25 02:15:00,
2013-02-24 21:20:00,23.2,21.0,30.17,NW,319,0.0,0.0,91,0.00,,,0.01,Wunderground v.1.15,2013-02-25 02:20:00,
2013-02-24 21:30:00,22.8,20.6,30.17,NW,319,0.0,0.0,91,0.00,,,0.01,Wunderground v.1.15,2013-02-25 02:30:00,
2013-02-24 21:40:00,22.6,20.4,30.16,NW,319,0.0,0.0,91,0.00,,,0.01,Wunderground v.1.15,2013-02-25 02:40:00,
2013-02-24 21:45:00,22.3,20.1,30.16,NW,319,0.0,0.0,91,0.00,,,0.01,Wunderground v.1.15,2013-02-25 02:45:00,
2013-02-24 21:55:00,21.7,19.7,30.17,NW,319,0.0,0.0,92,0.00,,,0.01,Wunderground v.1.15,2013-02-25 02:55:00,
2013-02-24 22:00:00,21.6,19.6,30.17,NW,319,0.0,0.0,92,0.00,,,0.01,Wunderground v.1.15,2013-02-25 03:00:00,
2013-02-24 22:10:00,21.7,20.0,30.17,NW,319,0.0,0.0,93,0.00,,,0.01,Wunderground v.1.15,2013-02-25 03:10:00,
2013-02-24 22:15:00,21.5,19.5,30.17,NW,319,0.0,0.0,92,0.00,,,0.01,Wunderground v.1.15,2013-02-25 03:15:00,
2013-02-24 22:25:00,21.1,19.4,30.17,NW,319,0.0,0.0,93,0.00,,,0.01,Wunderground v.1.15,2013-02-25 03:25:00,
2013-02-24 22:35:00,20.8,19.1,30.18,NW,319,0.0,0.0,93,0.00,,,0.01,Wunderground v.1.15,2013-02-25 03:35:00,
2013-02-24 22:45:00,20.7,19.0,30.18,NW,319,0.0,0.0,93,0.00,,,0.01,Wunderground v.1.15,2013-02-25 03:45:00,
2013-02-24 22:55:00,20.5,18.8,30.18,NW,319,0.0,0.0,93,0.00,,,0.01,Wunderground v.1.15,2013-02-25 03:55:00,
2013-02-24 23:05:00,20.1,18.4,30.18,NW,319,0.0,0.0,93,0.00,,,0.01,Wunderground v.1.15,2013-02-25 04:05:00,
2013-02-24 23:15:00,19.5,17.8,30.18,NW,319,0.0,0.0,93,0.00,,,0.01,Wunderground v.1.15,2013-02-25 04:15:00,
2013-02-24 23:25:00,19.7,18.3,30.17,NW,319,0.0,0.0,94,0.00,,,0.01,Wunderground v.1.15,2013-02-25 04:25:00,
2013-02-24 23:35:00,19.7,18.3,30.18,NW,319,0.0,0.0,94,0.00,,,0.01,Wunderground v.1.15,2013-02-25 04:35:00,
2013-02-24 23:45:00,19.4,18.0,30.17,NW,319,0.0,0.0,94,0.00,,,0.01,Wunderground v.1.15,2013-02-25 04:45:00,
2013-02-24 23:55:00,19.0,17.3,30.17,NW,319,0.0,0.0,93,0.00,,,0.01,Wunderground v.1.15,2013-02-25 04:55:00,